User: anonymous   Login
Location: Vancouver
(49.2500°N, 123.1330°W)
Time: 10:36:02
(UTC-08:00)
Language:

ISS - Orbit

View from above orbital plane
View from above orbital plane
View from above satellite
View from above satellite

Ground track
Ground track

The orbit data is extracted from the following two-line orbital elements,

1 25544U 98067A   14330.39720506 -.00001486  00000-0 -16906-4 0  4647
2 25544 051.6473 015.3683 0007298 063.6424 061.8520 15.51471374916494
Epoch (UTC): 26 November 2014 09:31:58
Eccentricity: 0.0007298
inclination: 51.6473°
perigee height: 407 km
apogee height: 417 km
right ascension of ascending node: 15.3683°
argument of perigee: 63.6424°
revolutions per day: 15.51471374
mean anomaly at epoch: 61.8520°
orbit number at epoch: 91649

The dashed part of the orbit path shows where the satellite is in the earth's shadow,  

DLR